• Join FlightAware (Why Join?)
  • Login
  • US Flag 
11:10AM EST


 

Airport Tracker/Info


-or-


 

Live Flight TrackerFlight Track Log ✈ JBU56 ✈ 25-Apr-2014 ✈ KIAD - KBOS

Flight Track Log - Related Links

Times and Time Zones

All times are in EDT time to prevent confusion due to time zone crossing. See the JBU56 flight status page for this flight to view local times or setup timezone preferences in your user account.

Time Position Orientation Groundspeed Altitude Reporting Facility
EDT Latitude Longitude Course Direction KTS MPH feet Rate Location/Type
08:49AM 38.9667 -77.5333 90° East 198 228 1,800  Level Potomac TRACON
08:50AM 39.0167 -77.5833 322° Northwest 251 289 4,400 2,737 Climbing Potomac TRACON
08:51AM 39.0833 -77.5667 11° North 302 348 7,000 2,895 Climbing Potomac TRACON
08:52AM 39.1333 -77.4833 52° Northeast 311 358 9,900 1,450 Climbing Potomac TRACON
08:53AM 39.0494 -76.8371 78° East  Level FlightAware Approximate
08:53AM 39.1667 -77.3833 67° East 343 395 9,900  Level Potomac TRACON
08:54AM 39.0667 -76.7094 90° East  Level FlightAware Approximate
08:54AM 39.1500 -77.2500 99° East 357 411 10,400  Level Potomac TRACON
08:55AM 39.1167 -77.1333 110° East 362 417 13,600 2,628 Climbing Potomac TRACON
08:56AM 39.0939 -77.0100 103° East 364 419 15,700 2,256 Climbing Washington Center
08:57AM 39.1047 -76.8700 84° East 390 449 18,300 1,597 Climbing Washington Center
08:58AM 39.1153 -76.7258 85° East 400 460 19,000 341 Climbing Washington Center
08:59AM 39.1261 -76.5764 85° East 414 476 19,000 435 Level Washington Center
09:00AM 39.1367 -76.4275 85° East 415 478 19,900 1,366 Climbing Washington Center
09:01AM 39.1506 -76.2422 84° East 434 499 21,800 1,476 Climbing Washington Center
09:02AM 39.1683 -76.0822 82° East 456 525 23,000 912 Climbing Washington Center
09:03AM 39.1881 -75.9172 81° East 465 535 23,700 1,152 Climbing Washington Center
09:04AM 39.2672 -75.7844 52° Northeast 478 550 25,400 1,742 Climbing Washington Center
09:05AM 39.3589 -75.6667 45° Northeast 466 536 27,300 1,672 Climbing Washington Center
09:06AM 39.4692 -75.5236 45° Northeast 468 539 28,800 1,476 Climbing Washington Center
09:07AM 39.5611 -75.4025 45° Northeast 473 544 30,400 1,056 Climbing Washington Center
09:08AM 39.6519 -75.2822 46° Northeast 469 540 31,000 290 Climbing Washington Center
09:09AM 39.7422 -75.1544 47° Northeast 480 552 31,000  Level Washington Center
09:10AM 39.8281 -75.0336 47° Northeast 485 558 31,000  Level New York Center
09:11AM 39.9181 -74.9039 48° Northeast 470 541 31,000  Level New York Center
09:12AM 40.0169 -74.7606 48° Northeast 470 541 31,000  Level New York Center
09:13AM 40.1069 -74.6244 49° Northeast 481 554 31,000  Level New York Center
09:14AM 40.1728 -74.5169 51° Northeast 481 554 31,000  Level New York Center
09:15AM 40.2736 -74.3647 49° Northeast 487 560 31,000  Level New York Center
09:16AM 40.3567 -74.2300 51° Northeast 482 555 31,000  Level New York Center
09:19AM 40.5722 -73.9003 49° Northeast 483 556 31,000  Level Washington Center
09:20AM 40.6567 -73.7625 51° Northeast 486 559 31,000 -650 Level Boston Center
09:21AM 40.7431 -73.6247 50° Northeast 487 560 29,700 -1,805 Descending Boston Center
09:22AM 40.8289 -73.4867 51° Northeast 487 560 27,300 -1,317 Descending Boston Center
09:23AM 40.9167 -73.3547 49° Northeast 478 550 27,000 -244 Descending Boston Center
09:24AM 41.0003 -73.2325 48° Northeast 477 549 26,800 -634 Descending Boston Center
09:25AM 41.1144 -73.1667 23° Northeast 451 519 25,700 -1,171 Descending Boston Center
09:26AM 41.2447 -73.0869 25° Northeast 433 498 24,400 -1,131 Descending Boston Center
09:27AM 41.3011 -72.9656 58° Northeast 437 503 23,400 -1,024 Descending Boston Center
09:28AM 41.3475 -72.8142 68° East 441 507 22,300 -1,073 Descending Boston Center
09:29AM 41.3931 -72.6669 68° East 434 499 21,200 -634 Descending Boston Center
09:30AM 41.4472 -72.4919 68° East 427 491 21,000 -98 Descending Boston Center
09:31AM 41.4919 -72.3472 68° East 424 488 21,000  Level Boston Center
09:32AM 41.5350 -72.2031 68° East 421 484 21,000  Level Boston Center
09:33AM 41.5819 -72.0497 68° East 418 481 21,000  Level Boston Center
09:34AM 41.6242 -71.9044 69° East 420 483 21,000 -683 Level Boston Center
09:35AM 41.6681 -71.7606 68° East 420 483 19,600 -1,623 Descending Boston Center
09:36AM 41.7083 -71.6231 69° East 405 466 17,700 -1,805 Descending Boston Center
09:37AM 41.7497 -71.4847 68° East 355 409 15,900 -1,659 Descending Boston Center
09:38AM 41.7831 -71.3714 68° East 332 382 14,300 -1,024 Descending Boston Center
09:39AM 41.8144 -71.2647 68° East 310 357 13,800 -829 Descending Boston Center
09:40AM 41.8436 -71.1617 69° East 278 320 12,600 -1,220 Descending Boston Center
09:41AM 41.8689 -71.0669 70° East 274 315 11,300 -1,122 Descending Boston Center
09:42AM 41.8922 -70.9736 71° East 268 308 10,300 -1,073 Descending Boston Center
09:43AM 41.9172 -70.8789 70° East 256 295 9,100 -1,073 Descending Boston Center
09:44AM 41.9453 -70.8092 62° Northeast 241 277 8,100 -541 Descending Boston Center
09:45AM 41.9872 -70.7417 50° Northeast 239 275 8,000 -341 Descending Boston Center
09:46AM 42.0286 -70.6717 51° Northeast 238 274 7,400 -927 Descending Boston Center
09:47AM 42.0711 -70.6828 349° North 216 249 6,100 -683 Descending Boston Center
09:48AM 42.0447 -70.7750 249° West 217 250 6,000 -49 Descending Boston Center
09:49AM 42.0208 -70.8564 248° West 219 252 6,000 -98 Level Boston Center
09:50AM 42.0125 -70.9358 262° West 216 249 5,800 -683 Descending Boston Center
09:51AM 42.0122 -71.0156 270° West 213 245 4,600 -878 Descending Boston Center
09:53AM 42.0264 -71.0956 283° West 216 249 4,000 -293 Descending Boston Center
09:54AM 42.0653 -71.1514 313° West 210 242 4,000  Level Boston Center
09:55AM 42.1131 -71.1811 335° Northwest 185 213 4,000 -244 Level Boston Center
09:56AM 42.1592 -71.1642 15° North 167 192 3,500 -246 Descending Boston Center
09:57AM 42.2025 -71.1425 20° North 166 191 3,500 -488 Level Boston Center
09:58AM 42.2447 -71.1211 21° North 166 191 2,500 -732 Descending Boston Center
09:59AM 42.2819 -71.0794 40° Northeast 169 194 2,000 -683 Descending Boston Center
10:00AM 42.3144 -71.0356 45° Northeast 171 197 1,100 -829 Descending Boston Center
10:01AM 42.3461 -71.0200 20° North 133 153 300 -787 Descending Boston Center